Flag for Russia Weather past 2 weeks in Saint-Petersburg, Russia

Now
61 °F

Broken clouds.


Feels Like: 61 °F
Forecast: 54 / 70 °F
Wind: 8 mph from West

Location: St. Petersburg

Current Time: Jul 1, 2015 at 8:05:15 AM

Latest Report: Jul 1, 2015 at 7:30 AM


Visibility: N/A

Pressure: 29.98 "Hg

Humidity: 88%

Dew point: 57 °F

Location of Saint-PetersburgLocation

Historic Weather in Saint-Petersburg — Graph

°F

Saint-Petersburg temperature yesterday

Maximum temperature yesterday: 75 °F (at 12:30 PM)
Minimum temperature yesterday: 50 °F (at 4:00 AM)
Average temperature yesterday: 65 °F

Past Weeks' High & Low Weather Summary

 TemperatureHumidityPressure
High79 °F (Jun 20, 1:30 PM)100% (Jun 23, 4:30 AM)30.04 "Hg (Jun 23, 4:30 AM)
Low41 °F (Jun 18, 2:30 AM)31% (Jun 16, 4:00 PM)29.74 "Hg (Jun 23, 5:00 AM)
Average60 °F68%29.88 "Hg
* Reported Jun 16 6:00 AM — Jul 1 6:30 AM, Saint-Petersburg, Weather by CustomWeather, © 2015

Note: Actual official high and low records may vary slightly from our data, if they occured in-between our weather recording intervals... More about our weather records

Advertising

Saint-Petersburg weather history for previous 24 hours

 ConditionsComfort  
Time TempWeatherWind HumidityBarometerVisibility
6:30 AM
Wed, Jul 1
59 °FSunny.6 mph88%29.98 "Hg10 mi
6:00 AM57 °FSunny.3 mph88%29.98 "Hg10 mi
5:30 AM57 °FSunny.1 mph88%29.98 "Hg10 mi
5:00 AM55 °FPartly sunny.1 mph88%29.98 "HgN/A
4:30 AM55 °FPassing clouds.3 mph88%29.98 "HgN/A
4:00 AM55 °FPassing clouds.1 mph88%29.98 "HgN/A
3:30 AM54 °FPassing clouds.1 mph94%29.98 "HgN/A
3:00 AM55 °FPassing clouds.1 mph88%29.98 "HgN/A
2:30 AM54 °FClear.1 mph88%29.98 "Hg10 mi
2:00 AM57 °FClear.1 mph82%29.98 "Hg10 mi
1:30 AM55 °FClear.3 mph88%29.98 "Hg10 mi
12:30 AM59 °FClear.1 mph77%29.98 "Hg10 mi
12:00 AM59 °FPartly cloudy.1 mph77%29.98 "HgN/A
11:30 PM
Tue, Jun 30
61 °FPassing clouds.1 mph72%29.98 "HgN/A
11:00 PM61 °FMostly cloudy.1 mph72%29.98 "HgN/A
10:30 PM63 °FMostly cloudy.3 mph68%29.98 "HgN/A
10:00 PM64 °FMostly cloudy.6 mph64%29.98 "HgN/A
9:30 PM66 °FBroken clouds.3 mph56%29.98 "HgN/A
9:00 PM68 °FBroken clouds.3 mph53%29.98 "HgN/A
8:00 PM68 °FBroken clouds.6 mph56%29.98 "HgN/A
7:30 PM66 °FSunny.8 mph60%29.98 "Hg10 mi
7:00 PM68 °FPassing clouds.6 mph56%29.98 "HgN/A
6:00 PM68 °FPassing clouds.6 mph64%29.98 "HgN/A
5:30 PM66 °FPassing clouds.6 mph68%29.98 "HgN/A
4:30 PM66 °FSunny.8 mph64%29.98 "Hg10 mi
4:00 PM68 °FSunny.10 mph60%29.98 "Hg10 mi
3:30 PM68 °FSunny.8 mph64%29.98 "Hg10 mi
3:00 PM68 °FSunny.10 mph60%29.98 "Hg10 mi
2:30 PM72 °FSunny.13 mph50%29.98 "Hg10 mi
2:00 PM70 °FSunny.8 mph53%29.98 "Hg10 mi
1:30 PM68 °FSunny.8 mph56%29.98 "Hg10 mi
1:00 PM70 °FSunny.10 mph57%29.98 "Hg10 mi
12:30 PM75 °FSunny.3 mph44%29.98 "Hg10 mi
12:00 PM73 °FPassing clouds.3 mph47%29.98 "HgN/A
11:30 AM73 °FPassing clouds.6 mph47%29.98 "HgN/A
11:00 AM73 °FPassing clouds.10 mph47%29.98 "HgN/A
10:30 AM73 °FPassing clouds.8 mph44%29.98 "HgN/A
10:00 AM73 °FPassing clouds.8 mph44%29.98 "HgN/A
9:30 AM72 °FPassing clouds.6 mph50%29.98 "HgN/A
9:00 AM72 °FPassing clouds.6 mph47%29.98 "HgN/A
8:30 AM72 °FPassing clouds.3 mph50%29.98 "HgN/A
8:00 AM70 °FSunny.1 mph50%29.98 "Hg10 mi
Weather by CustomWeather, © 2015

See weather overviewHow to use our weather pages